Location: Bodest
(46.3000°N, 22.5667°E)
Time: 01:04:45
(UTC+00:00)

FENGYUN 1C DEB - Pass Details

Date: 02 April 2023
Orbit: 806 x 916 km, 98.8° (Epoch: 29 May)

Event Time Altitude Azimuth Distance (km) Brightness Sun altitude
Rises 18:18:23 0° 178° (S) 3,540 ? -13.9°
Reaches altitude 10° 18:20:51 10° 182° (S) 2,600 ? -14.3°
Maximum altitude 18:26:33 54° 260° (W) 1,094 ? -15.2°
Drops below altitude 10° 18:32:11 10° 337° (NNW) 2,577 ? -16.1°
Sets 18:34:39 0° 342° (NNW) 3,507 ? -16.5°
